Weather History for KGJT - January, 2014

Change the Weather History Date:

Wednesday, January 15, 2014

  Actual Average Record
Temperature  
Mean Temperature 25 °F 27 °F  
Max Temperature 37 °F 37 °F 57 °F (1928)
Min Temperature 12 °F 17 °F -12 °F (2013)
Degree Days  
Heating Degree Days 40 38  
Month to date heating degree days 656 574  
Since 1 July heating degree days 3511 2933  
Cooling Degree Days 0 0  
Month to date cooling degree days 0 0  
Year to date cooling degree days 0 0  
Moisture  
Dew Point 17 °F    
Average Humidity 74    
Maximum Humidity 92    
Minimum Humidity 56    
Precipitation  
Precipitation 0.00 in 0.02 in 0.22 in (2006)
Month to date precipitation 0.04 0.30  
Year to date precipitation 0.04 0.30  
Snow  
Snow 0.00 in 0.10 in 2.40 in (2006)
Month to date snowfall 0.7 2.7  
Since 1 July snowfall 16.2 10.1  
Snow Depth 4.00 in    
Sea Level Pressure  
Sea Level Pressure 30.54 in    
Wind  
Wind Speed 4 mph (ENE)    
Max Wind Speed 15 mph    
Max Gust Speed 17 mph    
Visibility 10 miles    
Events      
T = Trace of Precipitation, MM = Missing Value Source: NWS Daily Summary

Daily Weather History Graph

Daily Weather History Graph

Search for Another Location

Airport or City:

Trip Planner

Search our weather history database for the weather conditions in past years. The results will help you decide how hot, cold, wet, or windy it might be!

Date:

Astronomy

Jan. 15, 2014 Rise Set
Actual Time 7:31 AM MST 5:15 PM MST
Civil Twilight 7:02 AM MST 5:45 PM MST
Nautical Twilight 6:29 AM MST 6:18 PM MST
Astronomical Twilight 5:57 AM MST 6:50 PM MST
Moon 5:15 PM MST (1/15) 6:50 AM MST (1/15)
Length of Visible Light 10h 42m
Length of Day
9h 44m
Full, 100% of the Moon is Illuminated
Jan 15
Full
Jan 15
Full
Jan 23
Last Quarter
Jan 30
New
Feb 6
First Quarter

Hourly Weather History & Observations

Time (MST) Temp. Windchill Dew Point Humidity Pressure Visibility Wind Dir Wind Speed Gust Speed Precip Events Conditions
12:53 AM 21.0 °F - 15.1 °F 78% 30.59 in 10.0 mi Calm Calm - N/A   Clear
1:53 AM 17.1 °F 10.0 °F 12.9 °F 84% 30.59 in 10.0 mi ENE 4.6 mph - N/A   Clear
2:53 AM 19.9 °F 7.3 °F 14.0 °F 78% 30.58 in 10.0 mi East 12.7 mph - N/A   Clear
3:53 AM 19.9 °F 13.4 °F 14.0 °F 78% 30.58 in 10.0 mi East 4.6 mph - N/A   Clear
4:53 AM 18.0 °F - 12.9 °F 81% 30.60 in 10.0 mi Calm Calm - N/A   Clear
5:53 AM 12.9 °F - 10.0 °F 88% 30.65 in 10.0 mi Calm Calm - N/A   Clear
6:53 AM 14.0 °F - 10.9 °F 88% 30.63 in 10.0 mi Calm Calm - N/A   Clear
7:53 AM 14.0 °F 5.1 °F 10.9 °F 88% 30.64 in 10.0 mi ENE 5.8 mph - N/A   Clear
8:53 AM 18.0 °F 11.1 °F 12.9 °F 81% 30.63 in 10.0 mi SE 4.6 mph - N/A   Clear
9:53 AM 23.0 °F 15.8 °F 17.1 °F 78% 30.63 in 10.0 mi NE 5.8 mph - N/A   Clear
10:53 AM 28.9 °F 25.2 °F 19.0 °F 67% 30.58 in 10.0 mi ENE 3.5 mph - N/A   Clear
11:53 AM 34.0 °F 31.0 °F 21.9 °F 61% 30.55 in 10.0 mi East 3.5 mph - N/A   Clear
12:53 PM 35.1 °F 32.2 °F 21.0 °F 57% 30.50 in 10.0 mi NNE 3.5 mph - N/A   Clear
1:53 PM 36.0 °F - 24.1 °F 62% 30.47 in 10.0 mi Calm Calm - N/A   Clear
2:53 PM 34.0 °F 28.8 °F 23.0 °F 64% 30.45 in 10.0 mi NNW 5.8 mph - N/A   Clear
3:53 PM 32.0 °F 25.6 °F 24.1 °F 73% 30.45 in 10.0 mi NW 6.9 mph - N/A   Clear
4:53 PM 32.0 °F 27.5 °F 21.9 °F 66% 30.46 in 10.0 mi North 4.6 mph - N/A   Clear
5:53 PM 27.0 °F - 21.0 °F 78% 30.49 in 10.0 mi Calm Calm - N/A   Clear
6:53 PM 21.9 °F - 18.0 °F 85% 30.51 in 10.0 mi Calm Calm - N/A   Clear
7:53 PM 21.0 °F 13.4 °F 17.1 °F 85% 30.51 in 10.0 mi East 5.8 mph - N/A   Clear
8:53 PM 25.0 °F 20.7 °F 18.0 °F 75% 30.47 in 10.0 mi ENE 3.5 mph - N/A   Clear
9:53 PM 21.9 °F 14.5 °F 17.1 °F 82% 30.49 in 10.0 mi East 5.8 mph - N/A   Clear
10:53 PM 21.0 °F 13.4 °F 17.1 °F 85% 30.47 in 10.0 mi East 5.8 mph - N/A   Clear
11:53 PM 23.0 °F 18.4 °F 16.0 °F 74% 30.43 in 10.0 mi East 3.5 mph - N/A   Clear